Location: Ferques
(50.8300°N, 1.7599°E)
Time: 20:57:40
(UTC+00:00)

SAR-Lupe-2 - Pass Details

Date: 19 May 2025
Orbit: 478 x 487 km, 98.1° (Epoch: 16 May)

Event Time Altitude Azimuth Distance (km) Brightness Sun altitude
Exits shadow 20:57:49 - 174° (S) 1,701 5.8 -9.8°
Reaches altitude 10° 20:57:56 10° 174° (S) 1,652 5.8 -9.8°
Maximum altitude 21:01:28 65° 257° (WSW) 532 3.8 -10.2°
Drops below altitude 10° 21:05:02 10° 340° (NNW) 1,669 7.6 -10.5°
Sets 21:07:07 0° 344° (NNW) 2,555 8.7 -10.7°
